STARLINK-5079, 53999

Orbit data source: Space-Track

STARLINK-5079, 53999 is a payload satellite owned by SpaceX/Seattle (US) in LEO that was launched on Wed, 05 Oct 2022 UTC via an FALCON 9 launch vehicle from the Air Force Western Test Range (AFWTR). Payload-class satellites include a variety of spacecraft equipped with specific instruments for various scientific and technological missions. These include communications satellites like Starlink; space stations such as the ISS; scientific satellites like the Hubble; Earth observation satellites from companies like Planet Labs, Umbra, and HawkEye 360; GPS; miniature CubeSats for education and research; and military/defense satellites.

Loading next visibility...
Identifier
53999, 2022-125AM
Orbit
LEO
Country
Flag of USUS
Related business
Manufacturer
SpaceX/Seattle
Mission
Operational Commercial Communications
Bus & Motor
STARLINK, Unknown motor
Mass
305 kg wet, ~290 kg dry
Launch date (UTC)
2022-10-05 (4 years ago)
Launch vehicle
FALCON 9
Launch site
Air Force Western Test Range (AFWTR)
Object type
Payload
Rocket body
Debris
Shape & HBR
Box + 1 Pan, 10.1 m
Radar Cross Section
13.562 m², Large (>1 m²)

Expand to show TLE details & history
Last TLE update: 3 days ago

TLE from 3 days ago
0 STARLINK-5079
1 53999U 22125AM  26170.56661605  .00001068  00000-0  85153-4 0  9999
2 53999  53.1637 116.5873 0001510  77.4549 282.6611 15.08843734204843
Epoch: 2026-06-19T13:35Z
TLE epoch observation values (Epoch: 2026-06-19T13:35:55.626Z)
Latitude
-0.00006°
Longitude
4.81173°
Altitude
540.395 km
Speed
7.593 km/s
True Right ascension
07h 46m 20s
True Declination
0° 00' 00"
Sunlit
Object was in daylight at epoch
Visualization orbit readout
Latitude
Unknown
Longitude
Unknown
Altitude
Unknown
Speed
Unknown
Apparent Right ascension
Unknown
Apparent Declination
Unknown
Sunlit
N/A
Visualization observer readout
Local Sidereal Time
21:34:01
Azimuth
Unknown
Elevation
Unknown
Doppler factor
Unknown
Orbital elements
Apogee altitude
541.03 km
Perigee altitude
538.941 km
Semi-major axis
6,918.123 km
Eccentricity
0.00015
Inclination
53.1637°
RAAN
116.5873°
Arg. of periapsis
77.4549°
True anomaly
282.64422°
Mean anomaly
282.6611°
Eccentric anomaly
282.65266°
Mean motion
3.77191 °/min
Orbital period
95.44 mins
BSTAR
0.000085153
Loading maneuver chart data...
Computing Atmospheric mass density...
Loading historical data...
Loading historical data...
Loading historical data...
Loading historical data...
Loading historical data...
Loading historical data...
Loading historical data...

Documentation

Showing up to 5 results
|